<?xml version="1.0"?>
<rss version="2.0">
   <channel>
   <title>[RADIOCOMM LIST]</title>
   <link>https://aus-city.com/cgi-bin/dada/mail.cgi/list/RADIOCOMM_LIST/</link>
   <description>Radio Comm Report list.  Deals with all modes of communications in the 150 KHz to 1300 MHz, including solar and atmospheric conditions.</description>
   <language>en-us</language>
   <lastBuildDate>Sat, 13 Jun 2026 02:35:00 GMT</lastBuildDate>
   <generator>Pro Dada v11.22.0 stable 2023-09-18</generator>
   
    
	 
		<item>
		 <title> [Keps] Changes to AMSAT TLE Distribution for 12 June 2026</title>
		 <link>https://aus-city.com/cgi-bin/dada/mail.cgi/archive/RADIOCOMM_LIST/20260611173143/</link>
		 <description>
                
                
			  	&#60;p&#62;The following satellite has been added to this week's AMSAT TLE Distribution:&#60;/p&#62;

&#60;p&#62;LO-19 NORAD Cat ID No. 20442  Began transmitting telemetry again &#60;/p&#62;

&#60;p&#62;Joe Fitzgerald KM1P
AMSAT Orbital Elements Manager&#60;/p&#62;

&#60;hr&#62;

&#60;p&#62;Keps mailing list -- &#38;#x6B;&#38;#x65;&#38;#112;&#38;#x73;&#38;#x40;&#38;#x61;&#38;#x6D;&#38;#115;&#38;#97;&#38;#x74;&#38;#x2E;&#38;#111;&#38;#x72;&#38;#x67;
View archives of this mailing list at https://mailman.amsat.org/hyperkitty/list/&#38;#x6B;&#38;#x65;&#38;#112;&#38;#x73;&#38;#x40;&#38;#x61;&#38;#x6D;&#38;#115;&#38;#97;&#38;#x74;&#38;#x2E;&#38;#111;&#38;#x72;&#38;#x67;
To unsubscribe send an email to &#38;#x6B;&#38;#x65;&#38;#x70;&#38;#x73;&#38;#x2D;&#38;#x6C;&#38;#101;&#38;#97;&#38;#118;&#38;#101;&#38;#64;&#38;#x61;&#38;#109;&#38;#115;&#38;#97;&#38;#x74;&#38;#x2E;&#38;#111;&#38;#114;&#38;#x67;
Manage all of your AMSAT-NA mailing list preferences at https://mailman.amsat.org&#60;/p&#62;

			  
                
                
&lt;!-- begin subscription_form_widget.tmpl --&gt; 


	&lt;form 
		action=&quot;https://aus-city.com/cgi-bin/dada/mail.cgi&quot; 
		method=&quot;post&quot; 
		accept-charset=&quot;UTF-8&quot; 
		id=&quot;subscription_form&quot;
		
			target=&quot;_self&quot;
		
	&gt;

	&lt;input type=&quot;hidden&quot; name=&quot;flavor&quot; id=&quot;ddm_flavor&quot; value=&quot;subscribe&quot; &gt;

	    &lt;div class=&quot;row&quot;&gt;
	        &lt;div class=&quot;small-12 columns&quot;&gt;

		 
		    &lt;input 
				type=&quot;hidden&quot; 
				name=&quot;list&quot; 
				id=&quot;ddm_list&quot; 
				value=&quot;RADIOCOMM_LIST&quot; 
			&gt;
		     
				
		    
		


		  
			      &lt;div class=&quot;row&quot;&gt;
			        &lt;div class=&quot;large-4 medium-4 columns&quot;&gt;
						&lt;label 
							class=&quot;medium-text-right&quot;
					  		for=&quot;ddm_email&quot; 
					  	&gt;
							Email Address
						&lt;/label&gt;
			        &lt;/div&gt;
			        &lt;div class=&quot;large-8 medium-8 columns&quot;&gt;
						 
							&lt;input 
								type=&quot;email&quot; 
								name=&quot;email&quot; 
								id=&quot;ddm_email&quot; 
								value=&quot;&quot;
								required=&quot;required&quot; 
								placeholder=&quot;user@example.com (required)&quot;
								&gt;
						 
			        &lt;/div&gt;
			      &lt;/div&gt;

	  
		 
			&lt;div id=&quot;ddm_subscriber_fields&quot;&gt; 
			 
			
			
			
				
			
			
			
			
			
			
			
			
			&lt;/div&gt; 
		
		
		

		
			
		
			
		
				
					
				&lt;input 
					type=&quot;hidden&quot;
					id=&quot;g-recaptcha-response_sf&quot;
					class=&quot;g-recaptcha-response&quot;
					name=&quot;g-recaptcha-response&quot;
				&gt;
				
				
				&lt;div class=&quot;row&quot;&gt;
					&lt;div class=&quot;large-4 medium-4 columns&quot;&gt;
						&amp;nbsp;
					&lt;/div&gt; 
					&lt;div class=&quot;large-8 medium-8 columns&quot;&gt;
						
					&lt;/div&gt;
				&lt;/div&gt;
				 
			
		
		
		&lt;div class=&quot;row&quot;&gt;
			&lt;div class=&quot;large-4 medium-4 columns&quot;&gt;
				&amp;nbsp;
			&lt;/div&gt; 
			&lt;div class=&quot;large-8 medium-8 columns&quot;&gt;
						&lt;input 
							type=&quot;submit&quot; 
							name=&quot;submit_button&quot;
							value=&quot;Subscribe&quot; 
							class=&quot;button success expand&quot; 
							id=&quot;ddm_subscribe_button&quot;
						&gt;
			&lt;/div&gt;
		&lt;/div&gt;
		
		&lt;div class=&quot;row&quot;&gt;
			&lt;div class=&quot;large-12 medium-12 columns large-centered medium-centered&quot;&gt;
				
					&lt;p class=&quot;text-center&quot;&gt; 
						Unsubscribe at Anytime
						| 
						&lt;a 
							href=&quot;https://aus-city.com/cgi-bin/dada/mail.cgi/privacy_policy/RADIOCOMM_LIST/&quot; 
							target=&quot;_blank&quot;
						&gt; 
							Privacy Policy
						&lt;/a&gt;
					&lt;/p&gt;
				
			&lt;/div&gt;
		&lt;/div&gt;
	&lt;/div&gt;
	&lt;/div&gt;
&lt;/form&gt; 

&lt;!-- end subscription_form_widget.tmpl --&gt; 
</description>
		 <pubDate>Fri, 12 Jun 2026 00:31:00 GMT</pubDate>
		 <guid>https://aus-city.com/cgi-bin/dada/mail.cgi/archive/RADIOCOMM_LIST/20260611173143/</guid>
		</item>

	
	 
		<item>
		 <title> [Keps] orb26163.2l.amsat</title>
		 <link>https://aus-city.com/cgi-bin/dada/mail.cgi/archive/RADIOCOMM_LIST/20260611173135/</link>
		 <description>
                
                
			  	&#60;p&#62;SB KEPS @ AMSAT  $ORB26163.1
2Line Orbital Elements 26163.AMSAT&#60;/p&#62;

&#60;p&#62;QST de W1STR&#60;/p&#62;

&#60;p&#62;AMSAT Orbital Elements for Amateur Satellites in TLE Format&#60;/p&#62;

&#60;blockquote&#62;
  &#60;p&#62;From Orbital Analysis Office
  New England Sci-Tech STEM Education Center
  Natick MA June 12, 2026
  To all radio amateurs&#60;/p&#62;
&#60;/blockquote&#62;

&#60;p&#62;These element sets describe the orbits of various satellites 
in use by the amateur radio community. For details see:
www.amsat.org/keplerian-elements-formats/&#60;/p&#62;

&#60;p&#62;A daily update of element sets is available at:
www.amsat.org/tle/daily-bulletin.txt
or without bulletin text:
www.amsat.org/tle/dailytle.txt&#60;/p&#62;

QO-100
1 43700U 18090A   26162.62828442  .00000161  00000-0  00000+0 0  9992
2 43700   0.0167 320.3790 0001431 157.1033  34.4948  1.00269967 27622
MinXSS-2
1 43758U 18099A   26162.72209756  .00031185  00000-0  62752-3 0  9992
2 43758  97.4547 238.8477 0006295 277.9918  82.0617 15.46533045413287
AO-95
1 43770U 18099N   26162.11310128  .00010727  00000-0  41211-3 0  9991
2 43770  97.4393 222.3819 0008614  20.0469 340.1107 15.26583130412293
SNUSat 2
1 43782U 18099AA  26162.61273932  .00007491  00000-0  33310-3 0  9995
2 43782  97.4071 216.0820 0008897 321.3467  38.7132 15.21755815412181
SnugLite
1 43784U 18099AC  26162.11537671  .00010460  00000-0  39674-3 0  9994
2 43784  97.3877 216.4553 0001521 337.6782  22.4390 15.27045448412399
ITASat 1
1 43786U 18099AE  26162.68590565  .00006612  00000-0  31860-3 0  9992
2 43786  97.4034 214.3073 0012715  19.6048 340.5673 15.18988570412075
EAGLET 1
1 43790U 18099AJ  26162.62940266  .00003955  00000-0  22801-3 0  9990
2 43790  97.4235 212.4449 0011224  13.4989 346.6540 15.12897029411496
ESEO
1 43792U 18099AL  26162.65911051  .00001966  00000-0  14545-3 0  9991
2 43792  97.3966 200.2837 0011896 358.5401   1.5789 15.04225493410976
JO-97
1 43803U 18099AX  26162.41903211  .00013576  00000-0  42176-3 0  9998
2 43803  97.4135 225.2337 0004121 290.5933  69.4867 15.33467542412740
Suomi 100
1 43804U 18099AY  26162.70662642  .00011026  00000-0  40226-3 0  9993
2 43804  97.4194 223.1205 0008408 302.3070  57.7355 15.28290236412585
ISAT
1 43879U 18111D   26162.79070485  .00088429  00000-0  91873-3 0  9992
2 43879  97.5882  97.5998 0001251  59.2219 300.9163 15.64337273410329
UWE-4
1 43880U 18111E   26162.77811529  .00033079  00000-0  68244-3 0  9991
2 43880  97.5852  90.9210 0006520   5.5235 354.6084 15.45791225409942
Sparrow
1 43881U 18111F   26162.08988774  .00138135  00000-0  10146-2 0  9999
2 43881  97.6115 102.3584 0004611 103.2888 256.8889 15.72684748410418
Prox-1
1 44339U 19036A   26162.63473251  .00012207  00000-0  11914-2 0  9990
2 44339  23.9924 151.3410 0005369 331.4108  28.6097 14.90479846372648
Taurus 1
1 44530U 19059C   26162.80502664  .00005025  00000-0  80794-3 0  9991
2 44530  98.6408 327.2998 0007654 335.2748  24.8090 14.72040742357859
TO-108
1 44881U 19093C   26162.86166634  .00000118  00000-0  19364-4 0  9991
2 44881  97.7532 235.2236 0014977 102.4587 257.8305 14.86508603350625
RS-44
1 44909U 19096E   26162.61066808  .00000028  00000-0  60927-4 0  9991
2 44909  82.5217 343.4113 0217927 157.1662 203.9312 12.79748751301632
SALSAT
1 46495U 20068K   26162.58556220  .00006923  00000-0  24314-3 0  9991
2 46495  97.8849 165.3093 0008526 331.4069  28.6701 15.29719030314503
CSS (TIANHE-1)
1 48274U 21035A   26162.53781053  .00016554  00000-0  19807-3 0  9994
2 48274  41.4693 356.3768 0008209  31.5834 328.5496 15.60566891292282
CUTE
1 49263U 21088D   26162.21741475  .00170126  12795-4  53187-3 0  9993
2 49263  97.4171 260.9418 0007805 241.5311 118.5177 15.91463951261601
TeikyoSat 4
1 49396U 21102B   26162.61866576  .00001857  00000-0  11958-3 0  9997
2 49396  97.3672 192.3186 0010836 318.3974  41.6430 15.09489641251889
Z-Sat
1 49399U 21102E   26162.85947080  .00002630  00000-0  13147-3 0  9998
2 49399  97.3332 198.3438 0014802 265.7820  94.1723 15.18221160252635
KOSEN 1
1 49402U 21102H   26162.63638323  .00006530  00000-0  25045-3 0  9999
2 49402  97.3194 204.9014 0012634 221.0806 138.9483 15.26758585253175
HO-113
1 50466U 21131B   26162.84816355  .00000475  00000-0  16045-3 0  9991
2 50466  98.4973 255.2667 0005293 108.7025 251.4738 14.41352794234344
SNUGLITE 2
1 52899U 22065F   26162.63292372  .00000834  00000-0  16702-3 0  9993
2 52899  98.2195 307.4736 0008329  48.8269 311.3650 14.64337670210180
UmKA 1 (RS40S)
1 57172U 23091G   26162.69853169  .00005909  00000-0  27090-3 0  9995
2 57172  97.5058 221.4167 0014017 134.8199 225.4178 15.20754474163175
CubeBel-2 (EU11S)
1 57175U 23091K   26162.81772562  .00011356  00000-0  40481-3 0  9991
2 57175  97.5060 225.9868 0011185 130.9539 229.2671 15.29019879163482
RS-38S
1 57189U 23091Z   26162.80543860  .00015937  00000-0  45823-3 0  9996
2 57189  97.5099 232.1829 0008561  93.8965 266.3257 15.35853733163866
SONATE-2
1 59112U 24043Q   26162.68083809  .00036244  00000-0  47794-3 0  9993
2 59112  97.5519 312.7414 0006785 214.2461 145.8357 15.58306667127037
GRBBeta
1 60237U 24128C   26162.57868025  .00003203  00000-0  22564-3 0  9993
2 60237  61.9897 235.9431 0041389 133.4300 227.0250 15.06603237105429
Curium One
1 60242U 24128H   26162.55059273  .00006356  00000-0  36934-3 0  9992
2 60242  61.9783 225.7373 0040666 129.3155 231.1557 15.12441491105605
ROBUSTA-3A
1 60243U 24128J   26162.51224362  .00006273  00000-0  37269-3 0  9992
2 60243  61.9859 228.3117 0041955 127.1025 233.3917 15.11611105105568
CatSat
1 60246U 24125J   26162.55312640  .00057615  00000-0  75817-3 0  9990
2 60246  97.2095  14.9841 0022213 199.2504 160.7915 15.57988127106514
